Time,TemperatureF,DewpointF,PressureIn,WindDirection,WindDirectionDegrees,WindSpeedMPH,WindSpeedGustMPH,Humidity,HourlyPrecipIn,Conditions,Clouds,dailyrainin,SoftwareType,DateUTC
2017-05-26 00:04:00,75.1,55.0,29.65,North,-9999,-999.9,-999.0,50,-99.99,,,-99.99,,2017-05-26 05:04:00,
2017-05-26 00:09:00,75.1,55.0,29.65,North,-9999,-999.9,-999.0,50,-99.99,,,-99.99,,2017-05-26 05:09:00,
2017-05-26 00:14:00,75.3,56.0,29.65,North,-9999,-999.9,-999.0,51,-99.99,,,-99.99,,2017-05-26 05:14:00,
2017-05-26 00:19:00,75.1,55.0,29.65,North,-9999,-999.9,-999.0,50,-99.99,,,-99.99,,2017-05-26 05:19:00,
2017-05-26 00:24:00,74.8,56.0,29.65,North,-9999,-999.9,-999.0,51,-99.99,,,-99.99,,2017-05-26 05:24:00,
2017-05-26 00:29:00,75.1,56.0,29.65,North,-9999,-999.9,-999.0,51,-99.99,,,-99.99,,2017-05-26 05:29:00,
2017-05-26 00:34:00,75.1,56.0,29.65,North,-9999,-999.9,-999.0,51,-99.99,,,-99.99,,2017-05-26 05:34:00,
2017-05-26 00:39:00,74.8,56.0,29.65,North,-9999,-999.9,-999.0,53,-99.99,,,-99.99,,2017-05-26 05:39:00,
2017-05-26 00:44:00,74.8,57.0,29.66,North,-9999,-999.9,-999.0,54,-99.99,,,-99.99,,2017-05-26 05:44:00,
2017-05-26 00:49:00,74.6,56.0,29.66,North,-9999,-999.9,-999.0,54,-99.99,,,-99.99,,2017-05-26 05:49:00,
2017-05-26 00:54:00,74.8,57.0,29.66,North,-9999,-999.9,-999.0,55,-99.99,,,-99.99,,2017-05-26 05:54:00,
2017-05-26 00:59:00,74.6,57.0,29.66,North,-9999,-999.9,-999.0,55,-99.99,,,-99.99,,2017-05-26 05:59:00,
2017-05-26 01:04:00,74.4,57.0,29.65,North,-9999,-999.9,-999.0,55,-99.99,,,-99.99,,2017-05-26 06:04:00,
2017-05-26 01:09:00,74.4,57.0,29.66,North,-9999,-999.9,-999.0,55,-99.99,,,-99.99,,2017-05-26 06:09:00,
2017-05-26 01:14:00,74.4,57.0,29.66,North,-9999,-999.9,-999.0,55,-99.99,,,-99.99,,2017-05-26 06:14:00,
2017-05-26 01:19:00,74.6,58.0,29.66,North,-9999,-999.9,-999.0,56,-99.99,,,-99.99,,2017-05-26 06:19:00,
2017-05-26 01:24:00,74.4,58.0,29.66,North,-9999,-999.9,-999.0,58,-99.99,,,-99.99,,2017-05-26 06:24:00,
2017-05-26 01:29:00,74.3,58.0,29.66,North,-9999,-999.9,-999.0,58,-99.99,,,-99.99,,2017-05-26 06:29:00,
2017-05-26 01:34:00,73.9,58.0,29.66,North,-9999,-999.9,-999.0,58,-99.99,,,-99.99,,2017-05-26 06:34:00,
2017-05-26 01:39:00,73.7,58.0,29.66,North,-9999,-999.9,-999.0,58,-99.99,,,-99.99,,2017-05-26 06:39:00,
2017-05-26 01:44:00,73.9,58.0,29.66,North,-9999,-999.9,-999.0,59,-99.99,,,-99.99,,2017-05-26 06:44:00,
2017-05-26 01:49:00,73.9,59.0,29.66,North,-9999,-999.9,-999.0,60,-99.99,,,-99.99,,2017-05-26 06:49:00,
2017-05-26 01:54:00,73.9,59.0,29.66,North,-9999,-999.9,-999.0,60,-99.99,,,-99.99,,2017-05-26 06:54:00,
2017-05-26 01:59:00,73.7,59.0,29.66,North,-9999,-999.9,-999.0,60,-99.99,,,-99.99,,2017-05-26 06:59:00,
2017-05-26 02:04:00,73.5,58.0,29.66,North,-9999,-999.9,-999.0,60,-99.99,,,-99.99,,2017-05-26 07:04:00,
2017-05-26 02:09:00,73.5,58.0,29.66,North,-9999,-999.9,-999.0,60,-99.99,,,-99.99,,2017-05-26 07:09:00,
2017-05-26 02:14:00,73.5,59.0,29.66,North,-9999,-999.9,-999.0,61,-99.99,,,-99.99,,2017-05-26 07:14:00,
2017-05-26 02:19:00,73.5,59.0,29.66,North,-9999,-999.9,-999.0,61,-99.99,,,-99.99,,2017-05-26 07:19:00,
2017-05-26 02:21:00,73.5,59.0,29.66,North,-9999,-999.9,-999.0,61,-99.99,,,-99.99,,2017-05-26 07:21:00,
2017-05-26 02:26:00,73.4,59.0,29.66,North,-9999,-999.9,-999.0,61,-99.99,,,-99.99,,2017-05-26 07:26:00,
2017-05-26 02:31:00,73.0,58.0,29.66,North,-9999,-999.9,-999.0,61,-99.99,,,-99.99,,2017-05-26 07:31:00,
2017-05-26 02:36:00,73.0,59.0,29.66,North,-9999,-999.9,-999.0,61,-99.99,,,-99.99,,2017-05-26 07:36:00,
2017-05-26 02:41:00,73.4,60.0,29.66,North,-9999,-999.9,-999.0,63,-99.99,,,-99.99,,2017-05-26 07:41:00,
2017-05-26 02:46:00,73.4,60.0,29.67,North,-9999,-999.9,-999.0,63,-99.99,,,-99.99,,2017-05-26 07:46:00,
2017-05-26 02:51:00,73.0,60.0,29.66,North,-9999,-999.9,-999.0,63,-99.99,,,-99.99,,2017-05-26 07:51:00,
2017-05-26 02:56:00,73.0,60.0,29.66,North,-9999,-999.9,-999.0,65,-99.99,,,-99.99,,2017-05-26 07:56:00,
2017-05-26 03:01:00,72.8,59.0,29.67,North,-9999,-999.9,-999.0,63,-99.99,,,-99.99,,2017-05-26 08:01:00,
2017-05-26 03:06:00,72.8,59.0,29.66,North,-9999,-999.9,-999.0,63,-99.99,,,-99.99,,2017-05-26 08:06:00,
2017-05-26 03:11:00,72.8,60.0,29.67,North,-9999,-999.9,-999.0,65,-99.99,,,-99.99,,2017-05-26 08:11:00,
2017-05-26 03:16:00,72.8,61.0,29.68,North,-9999,-999.9,-999.0,66,-99.99,,,-99.99,,2017-05-26 08:16:00,
2017-05-26 03:21:00,72.8,60.0,29.68,North,-9999,-999.9,-999.0,65,-99.99,,,-99.99,,2017-05-26 08:21:00,
2017-05-26 03:26:00,72.6,60.0,29.68,North,-9999,-999.9,-999.0,65,-99.99,,,-99.99,,2017-05-26 08:26:00,
2017-05-26 03:32:00,72.5,60.0,29.68,North,-9999,-999.9,-999.0,65,-99.99,,,-99.99,,2017-05-26 08:32:00,
2017-05-26 03:37:00,72.6,60.0,29.68,North,-9999,-999.9,-999.0,65,-99.99,,,-99.99,,2017-05-26 08:37:00,
2017-05-26 03:42:00,72.8,61.0,29.69,North,-9999,-999.9,-999.0,66,-99.99,,,-99.99,,2017-05-26 08:42:00,
2017-05-26 03:47:00,72.8,61.0,29.69,North,-9999,-999.9,-999.0,66,-99.99,,,-99.99,,2017-05-26 08:47:00,
2017-05-26 03:52:00,72.6,60.0,29.69,North,-9999,-999.9,-999.0,65,-99.99,,,-99.99,,2017-05-26 08:52:00,
2017-05-26 03:57:00,72.6,59.0,29.69,North,-9999,-999.9,-999.0,63,-99.99,,,-99.99,,2017-05-26 08:57:00,
2017-05-26 04:02:00,72.8,60.0,29.69,North,-9999,-999.9,-999.0,65,-99.99,,,-99.99,,2017-05-26 09:02:00,
2017-05-26 04:07:00,73.0,61.0,29.69,North,-9999,-999.9,-999.0,68,-99.99,,,-99.99,,2017-05-26 09:07:00,
2017-05-26 04:12:00,73.4,62.0,29.69,North,-9999,-999.9,-999.0,68,-99.99,,,-99.99,,2017-05-26 09:12:00,
2017-05-26 04:13:00,73.4,62.0,29.70,North,-9999,-999.9,-999.0,68,-99.99,,,-99.99,,2017-05-26 09:13:00,
2017-05-26 04:18:00,73.4,62.0,29.69,North,-9999,-999.9,-999.0,69,-99.99,,,-99.99,,2017-05-26 09:18:00,
2017-05-26 04:23:00,73.0,61.0,29.69,North,-9999,-999.9,-999.0,68,-99.99,,,-99.99,,2017-05-26 09:23:00,
2017-05-26 04:28:00,73.0,61.0,29.69,North,-9999,-999.9,-999.0,68,-99.99,,,-99.99,,2017-05-26 09:28:00,
2017-05-26 04:33:00,73.4,62.0,29.69,North,-9999,-999.9,-999.0,68,-99.99,,,-99.99,,2017-05-26 09:33:00,
2017-05-26 04:38:00,73.5,62.0,29.69,North,-9999,-999.9,-999.0,69,-99.99,,,-99.99,,2017-05-26 09:38:00,
2017-05-26 04:43:00,73.5,62.0,29.69,North,-9999,-999.9,-999.0,69,-99.99,,,-99.99,,2017-05-26 09:43:00,
2017-05-26 04:48:00,73.7,63.0,29.69,North,-9999,-999.9,-999.0,70,-99.99,,,-99.99,,2017-05-26 09:48:00,
2017-05-26 04:53:00,73.7,63.0,29.69,North,-9999,-999.9,-999.0,70,-99.99,,,-99.99,,2017-05-26 09:53:00,
2017-05-26 04:58:00,73.7,63.0,29.70,North,-9999,-999.9,-999.0,70,-99.99,,,-99.99,,2017-05-26 09:58:00,
2017-05-26 05:03:00,73.9,63.0,29.70,North,-9999,-999.9,-999.0,70,-99.99,,,-99.99,,2017-05-26 10:03:00,
2017-05-26 05:08:00,73.9,64.0,29.69,North,-9999,-999.9,-999.0,71,-99.99,,,-99.99,,2017-05-26 10:08:00,
2017-05-26 05:13:00,74.3,65.0,29.69,North,-9999,-999.9,-999.0,73,-99.99,,,-99.99,,2017-05-26 10:13:00,
2017-05-26 05:18:00,74.3,65.0,29.69,North,-9999,-999.9,-999.0,73,-99.99,,,-99.99,,2017-05-26 10:18:00,
2017-05-26 05:23:00,74.3,65.0,29.69,North,-9999,-999.9,-999.0,73,-99.99,,,-99.99,,2017-05-26 10:23:00,
2017-05-26 05:28:00,73.9,64.0,29.70,North,-9999,-999.9,-999.0,71,-99.99,,,-99.99,,2017-05-26 10:28:00,
2017-05-26 05:33:00,74.3,65.0,29.70,North,-9999,-999.9,-999.0,73,-99.99,,,-99.99,,2017-05-26 10:33:00,
2017-05-26 05:38:00,74.3,65.0,29.70,North,-9999,-999.9,-999.0,73,-99.99,,,-99.99,,2017-05-26 10:38:00,
2017-05-26 05:43:00,74.3,65.0,29.69,North,-9999,-999.9,-999.0,74,-99.99,,,-99.99,,2017-05-26 10:43:00,
2017-05-26 05:48:00,74.4,66.0,29.70,North,-9999,-999.9,-999.0,75,-99.99,,,-99.99,,2017-05-26 10:48:00,
2017-05-26 05:53:00,74.3,65.0,29.70,North,-9999,-999.9,-999.0,74,-99.99,,,-99.99,,2017-05-26 10:53:00,
2017-05-26 05:58:00,74.3,65.0,29.69,North,-9999,-999.9,-999.0,74,-99.99,,,-99.99,,2017-05-26 10:58:00,
2017-05-26 06:03:00,73.9,64.0,29.70,North,-9999,-999.9,-999.0,73,-99.99,,,-99.99,,2017-05-26 11:03:00,
2017-05-26 06:08:00,73.9,64.0,29.71,North,-9999,-999.9,-999.0,73,-99.99,,,-99.99,,2017-05-26 11:08:00,
2017-05-26 06:18:00,74.4,66.0,29.71,North,-9999,-999.9,-999.0,75,-99.99,,,-99.99,,2017-05-26 11:18:00,
2017-05-26 06:23:00,74.4,66.0,29.71,North,-9999,-999.9,-999.0,75,-99.99,,,-99.99,,2017-05-26 11:23:00,
2017-05-26 06:28:00,74.4,66.0,29.71,North,-9999,-999.9,-999.0,75,-99.99,,,-99.99,,2017-05-26 11:28:00,
2017-05-26 06:33:00,74.3,65.0,29.72,North,-9999,-999.9,-999.0,73,-99.99,,,-99.99,,2017-05-26 11:33:00,
2017-05-26 06:38:00,74.4,65.0,29.72,North,-9999,-999.9,-999.0,74,-99.99,,,-99.99,,2017-05-26 11:38:00,
2017-05-26 06:43:00,74.6,66.0,29.72,North,-9999,-999.9,-999.0,75,-99.99,,,-99.99,,2017-05-26 11:43:00,
2017-05-26 06:48:00,74.6,66.0,29.71,North,-9999,-999.9,-999.0,75,-99.99,,,-99.99,,2017-05-26 11:48:00,
2017-05-26 06:53:00,74.4,66.0,29.71,North,-9999,-999.9,-999.0,75,-99.99,,,-99.99,,2017-05-26 11:53:00,
2017-05-26 06:58:00,74.3,65.0,29.72,North,-9999,-999.9,-999.0,74,-99.99,,,-99.99,,2017-05-26 11:58:00,
2017-05-26 07:03:00,74.3,65.0,29.72,North,-9999,-999.9,-999.0,74,-99.99,,,-99.99,,2017-05-26 12:03:00,
2017-05-26 07:08:00,74.3,65.0,29.72,North,-9999,-999.9,-999.0,75,-99.99,,,-99.99,,2017-05-26 12:08:00,
2017-05-26 07:13:00,74.3,65.0,29.72,North,-9999,-999.9,-999.0,75,-99.99,,,-99.99,,2017-05-26 12:13:00,
2017-05-26 07:18:00,74.3,66.0,29.72,North,-9999,-999.9,-999.0,75,-99.99,,,-99.99,,2017-05-26 12:18:00,
2017-05-26 07:23:00,74.3,65.0,29.72,North,-9999,-999.9,-999.0,75,-99.99,,,-99.99,,2017-05-26 12:23:00,
2017-05-26 07:28:00,74.3,65.0,29.72,North,-9999,-999.9,-999.0,74,-99.99,,,-99.99,,2017-05-26 12:28:00,
2017-05-26 07:33:00,74.3,65.0,29.72,North,-9999,-999.9,-999.0,73,-99.99,,,-99.99,,2017-05-26 12:33:00,
2017-05-26 07:38:00,74.6,65.0,29.72,North,-9999,-999.9,-999.0,74,-99.99,,,-99.99,,2017-05-26 12:38:00,
2017-05-26 07:43:00,75.1,66.0,29.72,North,-9999,-999.9,-999.0,74,-99.99,,,-99.99,,2017-05-26 12:43:00,
2017-05-26 07:44:00,75.1,66.0,29.73,North,-9999,-999.9,-999.0,75,-99.99,,,-99.99,,2017-05-26 12:44:00,
2017-05-26 07:49:00,75.3,66.0,29.73,North,-9999,-999.9,-999.0,74,-99.99,,,-99.99,,2017-05-26 12:49:00,
2017-05-26 07:54:00,75.1,66.0,29.73,North,-9999,-999.9,-999.0,74,-99.99,,,-99.99,,2017-05-26 12:54:00,
2017-05-26 07:55:00,75.1,66.0,29.73,North,-9999,-999.9,-999.0,74,-99.99,,,-99.99,,2017-05-26 12:55:00,
2017-05-26 08:00:00,74.8,65.0,29.73,North,-9999,-999.9,-999.0,74,-99.99,,,-99.99,,2017-05-26 13:00:00,
2017-05-26 08:05:00,74.8,65.0,29.73,North,-9999,-999.9,-999.0,74,-99.99,,,-99.99,,2017-05-26 13:05:00,
2017-05-26 08:10:00,75.1,66.0,29.73,North,-9999,-999.9,-999.0,75,-99.99,,,-99.99,,2017-05-26 13:10:00,
2017-05-26 08:15:00,75.3,66.0,29.73,North,-9999,-999.9,-999.0,75,-99.99,,,-99.99,,2017-05-26 13:15:00,
2017-05-26 08:20:00,75.5,66.0,29.73,North,-9999,-999.9,-999.0,74,-99.99,,,-99.99,,2017-05-26 13:20:00,
2017-05-26 08:25:00,76.2,67.0,29.74,North,-9999,-999.9,-999.0,74,-99.99,,,-99.99,,2017-05-26 13:25:00,
2017-05-26 08:30:00,76.4,67.0,29.74,North,-9999,-999.9,-999.0,75,-99.99,,,-99.99,,2017-05-26 13:30:00,
2017-05-26 08:35:00,76.2,67.0,29.74,North,-9999,-999.9,-999.0,74,-99.99,,,-99.99,,2017-05-26 13:35:00,
2017-05-26 08:40:00,76.0,67.0,29.74,North,-9999,-999.9,-999.0,74,-99.99,,,-99.99,,2017-05-26 13:40:00,
2017-05-26 08:45:00,75.7,66.0,29.74,North,-9999,-999.9,-999.0,74,-99.99,,,-99.99,,2017-05-26 13:45:00,
2017-05-26 08:50:00,76.0,67.0,29.74,North,-9999,-999.9,-999.0,75,-99.99,,,-99.99,,2017-05-26 13:50:00,
2017-05-26 08:51:00,76.0,67.0,29.74,North,-9999,-999.9,-999.0,75,-99.99,,,-99.99,,2017-05-26 13:51:00,
2017-05-26 08:56:00,76.2,67.0,29.75,North,-9999,-999.9,-999.0,75,-99.99,,,-99.99,,2017-05-26 13:56:00,
2017-05-26 09:01:00,76.2,66.0,29.75,North,-9999,-999.9,-999.0,73,-99.99,,,-99.99,,2017-05-26 14:01:00,
2017-05-26 09:03:00,76.4,67.0,29.75,North,-9999,-999.9,-999.0,73,-99.99,,,-99.99,,2017-05-26 14:03:00,
2017-05-26 09:08:00,76.9,67.0,29.75,North,-9999,-999.9,-999.0,73,-99.99,,,-99.99,,2017-05-26 14:08:00,
2017-05-26 09:13:00,77.1,68.0,29.75,North,-9999,-999.9,-999.0,74,-99.99,,,-99.99,,2017-05-26 14:13:00,
2017-05-26 09:18:00,77.5,68.0,29.75,North,-9999,-999.9,-999.0,74,-99.99,,,-99.99,,2017-05-26 14:18:00,
2017-05-26 09:23:00,77.8,68.0,29.75,North,-9999,-999.9,-999.0,74,-99.99,,,-99.99,,2017-05-26 14:23:00,
2017-05-26 09:28:00,77.8,68.0,29.75,North,-9999,-999.9,-999.0,73,-99.99,,,-99.99,,2017-05-26 14:28:00,
2017-05-26 09:33:00,78.2,68.0,29.75,North,-9999,-999.9,-999.0,73,-99.99,,,-99.99,,2017-05-26 14:33:00,
2017-05-26 09:38:00,78.8,69.0,29.75,North,-9999,-999.9,-999.0,73,-99.99,,,-99.99,,2017-05-26 14:38:00,
2017-05-26 09:43:00,78.9,69.0,29.76,North,-9999,-999.9,-999.0,73,-99.99,,,-99.99,,2017-05-26 14:43:00,
2017-05-26 09:48:00,79.1,69.0,29.76,North,-9999,-999.9,-999.0,71,-99.99,,,-99.99,,2017-05-26 14:48:00,
2017-05-26 09:53:00,79.1,68.0,29.76,North,-9999,-999.9,-999.0,70,-99.99,,,-99.99,,2017-05-26 14:53:00,
2017-05-26 09:58:00,79.3,68.0,29.75,North,-9999,-999.9,-999.0,70,-99.99,,,-99.99,,2017-05-26 14:58:00,
2017-05-26 10:03:00,79.8,69.0,29.75,North,-9999,-999.9,-999.0,70,-99.99,,,-99.99,,2017-05-26 15:03:00,
2017-05-26 10:08:00,80.2,69.0,29.75,North,-9999,-999.9,-999.0,70,-99.99,,,-99.99,,2017-05-26 15:08:00,
2017-05-26 10:13:00,80.5,69.0,29.75,North,-9999,-999.9,-999.0,69,-99.99,,,-99.99,,2017-05-26 15:13:00,
2017-05-26 10:18:00,80.5,69.0,29.75,North,-9999,-999.9,-999.0,68,-99.99,,,-99.99,,2017-05-26 15:18:00,